North Island, CA

1:09 AM PDT on August 19, 2017 (GMT -0700)
North Island Naval Air Station

Weather History for KNZY - March, 2013

Change the Weather History Date:

Monday, March 25, 2013

  Actual Average Record
Temperature  
Mean Temperature 60 °F -  
Max Temperature 68 °F 62 °F 75 °F (2009)
Min Temperature 55 °F 52 °F 48 °F (1999)
Degree Days  
Heating Degree Days 4    
Growing Degree Days 10 (Base 50)    
Moisture  
Dew Point 53 °F    
Average Humidity 76    
Maximum Humidity 84    
Minimum Humidity 61    
Precipitation  
Precipitation 0.00 in - - ()
Sea Level Pressure  
Sea Level Pressure 29.94 in    
Wind  
Wind Speed 2 mph (SW)    
Max Wind Speed 9 mph    
Max Gust Speed -    
Visibility 7 miles    
Events      
Averages and records for this station are not official NWS values.
T = Trace of Precipitation, MM = Missing Value Source: NWS Daily Summary

Daily Weather History Graph

Daily Weather History Graph

Search for Another Location

Airport or City:

Trip Planner

Search our weather history database for the weather conditions in past years. The results will help you decide how hot, cold, wet, or windy it might be!

Date:

Astronomy

Mar. 25, 2013 Rise Set
Actual Time 6:45 AM PDT 7:04 PM PDT
Civil Twilight 6:20 AM PDT 7:28 PM PDT
Nautical Twilight 5:52 AM PDT 7:57 PM PDT
Astronomical Twilight 5:22 AM PDT 8:27 PM PDT
Moon 5:43 PM PDT (3/25) 5:27 AM PDT (3/25)
Length of Visible Light 13h 07m
Length of Day
12h 18m
Waxing Gibbous, 97% of the Moon is Illuminated
Mar 25
Waxing Gibbous
Mar 27
Full
Apr 2
Last Quarter
Apr 10
New
Apr 18
First Quarter

Hourly Weather History & Observations

Time (PDT) Temp. Dew Point Humidity Pressure Visibility Wind Dir Wind Speed Gust Speed Precip Events Conditions
12:52 AM 57.0 °F 52.0 °F 83% 29.94 in 6.0 mi Calm Calm - N/A   Partly Cloudy
1:52 AM 57.9 °F 52.0 °F 81% 29.94 in 5.0 mi Calm Calm - N/A   Partly Cloudy
2:52 AM 55.9 °F 51.1 °F 84% 29.93 in 5.0 mi Calm Calm - N/A   Partly Cloudy
3:52 AM 55.9 °F 51.1 °F 84% 29.92 in 5.0 mi Calm Calm - N/A   Scattered Clouds
4:19 AM 57.2 °F 51.8 °F 82% 29.93 in 4.0 mi Calm Calm - N/A   Mostly Cloudy
4:52 AM 59.0 °F 54.0 °F 83% 29.94 in 4.0 mi Calm Calm - N/A   Overcast
5:52 AM 59.0 °F 53.1 °F 81% 29.95 in 4.0 mi West 3.5 mph - N/A   Overcast
6:52 AM 59.0 °F 53.1 °F 81% 29.96 in 5.0 mi Calm Calm - N/A   Overcast
7:52 AM 59.0 °F 53.1 °F 81% 29.96 in 6.0 mi SE 3.5 mph - N/A   Overcast
8:52 AM 61.0 °F 54.0 °F 78% 29.96 in 5.0 mi ENE 3.5 mph - N/A   Mostly Cloudy
9:11 AM 62.6 °F 55.4 °F 77% 29.96 in 4.0 mi SSE 3.5 mph - N/A   Haze
9:52 AM 63.0 °F 54.0 °F 72% 29.96 in 5.0 mi WNW 3.5 mph - N/A   Haze
10:52 AM 64.9 °F 54.0 °F 68% 29.96 in 6.0 mi West 5.8 mph - N/A   Haze
11:52 AM 66.0 °F 53.1 °F 63% 29.96 in 7.0 mi West 8.1 mph - N/A   Scattered Clouds
12:52 PM 66.0 °F 53.1 °F 63% 29.96 in 9.0 mi NW 8.1 mph - N/A   Scattered Clouds
1:52 PM 66.9 °F 53.1 °F 61% 29.94 in 10.0 mi Variable 4.6 mph - N/A   Scattered Clouds
2:52 PM 64.9 °F 54.0 °F 68% 29.92 in 10.0 mi SSW 9.2 mph - N/A   Scattered Clouds
3:52 PM 66.0 °F 54.0 °F 65% 29.91 in 10.0 mi SSW 8.1 mph - N/A   Scattered Clouds
4:52 PM 64.9 °F 53.1 °F 65% 29.91 in 10.0 mi WSW 8.1 mph - N/A   Scattered Clouds
5:52 PM 63.0 °F 53.1 °F 70% 29.91 in 10.0 mi WSW 6.9 mph - N/A   Scattered Clouds
6:52 PM 61.0 °F 54.0 °F 78% 29.92 in 7.0 mi West 3.5 mph - N/A   Scattered Clouds
7:52 PM 60.1 °F 54.0 °F 80% 29.92 in 7.0 mi SSW 3.5 mph - N/A   Scattered Clouds
8:26 PM - - N/A% - - North - - N/A   Unknown
8:52 PM 59.0 °F 53.1 °F 81% 29.93 in 7.0 mi SSW 3.5 mph - N/A   Scattered Clouds
9:52 PM 57.9 °F 53.1 °F 84% 29.96 in 7.0 mi SW 4.6 mph - N/A   Scattered Clouds
10:52 PM 57.9 °F 53.1 °F 84% 29.97 in 7.0 mi Calm Calm - N/A   Scattered Clouds
11:12 PM 57.2 °F 51.8 °F 82% 29.96 in 7.0 mi Calm Calm - N/A   Mostly Cloudy
11:52 PM 59.0 °F 53.1 °F 81% 29.96 in 7.0 mi Calm Calm - N/A   Overcast